Philadelphia Wings Airport, PA

4:25 PM EDT on October 16, 2019 (GMT -0400)
Philadelphia Wings Airport

Weather History for KLOM - August, 2019

Change the Weather History Date:

Wednesday, August 28, 2019

  Actual Average (WUND) Record (WUND)
Temperature  
Mean Temperature 70 °F -  
Max Temperature 80 °F - - (-1)
Min Temperature 61 °F - - (-1)
Cooling Degree Days 6    
Growing Degree Days 20 (Base 50)    
Moisture  
Dew Point 66 °F    
Average Humidity 86    
Maximum Humidity 99    
Minimum Humidity 62    
Precipitation  
Precipitation 0.00 in - - ()
Sea Level Pressure  
Sea Level Pressure 29.90 in    
Wind  
Wind Speed 2 mph (NNE)    
Max Wind Speed 9 mph    
Max Gust Speed -    
Visibility 9 miles    
Events      
Averages and records for this station are not official NWS values.
T = Trace of Precipitation, MM = Missing Value Source: NWS Daily Summary

Daily Weather History Graph

Daily Weather History Graph

Search for Another Location

Airport or City:

Astronomy

Aug. 28, 2019 Rise Set
Actual Time 6:24 AM EDT 7:39 PM EDT
Civil Twilight 5:56 AM EDT 8:07 PM EDT
Nautical Twilight 5:22 AM EDT 8:40 PM EDT
Astronomical Twilight 4:47 AM EDT 9:16 PM EDT
Moon 3:53 AM EDT (8/28) 6:49 PM EDT (8/28)
Length of Visible Light 14h 10m
Length of Day
13h 14m
Waning Crescent, 5% of the Moon is Illuminated
Aug 28
Waning Crescent
Aug 30
New
Sep 5
First Quarter
Sep 14
Full
Sep 21
Last Quarter

Hourly Weather History & Observations

Time (EDT) Temp. Heat Index Dew Point Humidity Pressure Visibility Wind Dir Wind Speed Gust Speed Precip Events Conditions
12:15 AM 63.1 °F - 62.2 °F 97% 30.02 in 10.0 mi Calm Calm - N/A   Clear
12:35 AM 61.9 °F - 61.5 °F 99% 30.01 in 10.0 mi ENE 3.5 mph - N/A   Clear
12:55 AM 62.6 °F - 62.1 °F 98% 30.00 in 10.0 mi NE 3.5 mph - N/A   Scattered Clouds
1:15 AM 62.2 °F - 61.7 °F 98% 30.00 in 10.0 mi ENE 3.5 mph - N/A   Scattered Clouds
1:35 AM 62.2 °F - 61.9 °F 99% 30.00 in 10.0 mi Calm Calm - N/A   Mostly Cloudy
1:55 AM 62.1 °F - 61.9 °F 99% 29.99 in 10.0 mi Calm Calm - N/A   Overcast
2:15 AM 61.9 °F - 61.7 °F 99% 29.99 in 7.0 mi Calm Calm - N/A   Overcast
2:35 AM 62.6 °F - 62.4 °F 99% 29.99 in 10.0 mi Calm Calm - N/A   Overcast
2:55 AM 62.8 °F - 62.4 °F 99% 29.98 in 10.0 mi Calm Calm - N/A   Overcast
3:15 AM 63.0 °F - 62.6 °F 99% 29.97 in 10.0 mi Calm Calm - N/A   Overcast
3:35 AM 63.5 °F - 63.0 °F 98% 29.96 in 10.0 mi Calm Calm - N/A   Overcast
3:55 AM 63.5 °F - 63.0 °F 98% 29.96 in 10.0 mi Calm Calm - N/A   Overcast
4:15 AM 63.5 °F - 63.0 °F 98% 29.95 in 10.0 mi Calm Calm - N/A   Overcast
4:35 AM 63.7 °F - 63.1 °F 98% 29.95 in 10.0 mi NE 3.5 mph - N/A   Overcast
4:50 AM 63.9 °F - 63.3 °F 98% 29.95 in 7.0 mi Calm Calm - N/A   Overcast
5:15 AM 64.0 °F - 63.5 °F 98% 29.94 in 7.0 mi Calm Calm - N/A   Overcast
5:35 AM 64.0 °F - 63.5 °F 98% 29.93 in 7.0 mi Calm Calm - N/A   Overcast
5:55 AM 64.0 °F - 63.7 °F 99% 29.93 in 5.0 mi Calm Calm - N/A   Overcast
6:15 AM 64.2 °F - 63.9 °F 99% 29.94 in 5.0 mi NE 3.5 mph - N/A   Overcast
6:35 AM 64.4 °F - 64.0 °F 99% 29.94 in 5.0 mi East 3.5 mph - N/A   Overcast
6:55 AM 64.6 °F - 64.2 °F 99% 29.94 in 5.0 mi Calm Calm - N/A   Overcast
7:15 AM 65.3 °F - 64.6 °F 98% 29.94 in 5.0 mi NE 3.5 mph - N/A   Overcast
7:35 AM 66.4 °F - 65.3 °F 96% 29.94 in 7.0 mi ENE 3.5 mph - N/A   Overcast
7:55 AM 66.9 °F - 65.5 °F 95% 29.94 in 7.0 mi ENE 3.5 mph - N/A   Overcast
8:15 AM 67.3 °F - 65.7 °F 95% 29.94 in 10.0 mi NNE 3.5 mph - N/A   Overcast
8:35 AM 68.0 °F - 66.0 °F 93% 29.93 in 10.0 mi NE 3.5 mph - N/A   Overcast
8:55 AM 69.4 °F - 66.4 °F 90% 29.92 in 10.0 mi ENE 4.6 mph - N/A   Overcast
9:15 AM 70.7 °F - 67.1 °F 88% 29.92 in 10.0 mi ENE 5.8 mph - N/A   Overcast
9:35 AM 71.6 °F - 66.7 °F 85% 29.92 in 10.0 mi NE 4.6 mph - N/A   Mostly Cloudy
9:55 AM 72.7 °F - 67.1 °F 83% 29.92 in 10.0 mi Calm Calm - N/A   Overcast
10:15 AM 74.7 °F - 67.8 °F 79% 29.92 in 10.0 mi NE 3.5 mph - N/A   Mostly Cloudy
10:35 AM 74.8 °F - 66.2 °F 74% 29.91 in 10.0 mi ENE 4.6 mph - N/A   Scattered Clouds
10:55 AM 76.6 °F - 67.1 °F 72% 29.91 in 10.0 mi NNE 4.6 mph - N/A   Mostly Cloudy
11:15 AM 77.0 °F - 66.0 °F 69% 29.91 in 10.0 mi ENE 3.5 mph - N/A   Overcast
11:35 AM 77.4 °F - 66.6 °F 69% 29.89 in 10.0 mi ENE 3.5 mph - N/A   Scattered Clouds
11:55 AM 77.9 °F - 67.3 °F 70% 29.88 in 10.0 mi Calm Calm - N/A   Clear
12:15 PM 78.1 °F - 67.8 °F 71% 29.88 in 10.0 mi Calm Calm - N/A   Clear
12:35 PM 78.1 °F - 67.3 °F 69% 29.87 in 10.0 mi Calm Calm - N/A   Clear
12:55 PM 78.1 °F - 67.1 °F 69% 29.87 in 10.0 mi Calm Calm - N/A   Scattered Clouds
1:15 PM 78.6 °F - 67.1 °F 68% 29.86 in 10.0 mi South 3.5 mph - N/A   Mostly Cloudy
1:35 PM 78.8 °F - 66.9 °F 67% 29.86 in 10.0 mi Calm Calm - N/A   Scattered Clouds
1:55 PM 78.6 °F - 66.6 °F 66% 29.86 in 10.0 mi Calm Calm - N/A   Mostly Cloudy
2:15 PM 78.8 °F - 67.1 °F 67% 29.85 in 10.0 mi Calm Calm - N/A   Mostly Cloudy
2:35 PM 80.1 °F 82.6 °F 67.8 °F 66% 29.85 in 10.0 mi East 3.5 mph - N/A   Overcast
2:55 PM 79.5 °F - 67.6 °F 67% 29.84 in 10.0 mi Calm Calm - N/A   Overcast
3:15 PM 79.9 °F - 67.6 °F 66% 29.84 in 10.0 mi NNW 4.6 mph - N/A   Overcast
3:35 PM 79.7 °F - 67.1 °F 65% 29.83 in 10.0 mi West 3.5 mph - N/A   Overcast
3:55 PM 79.9 °F - 66.4 °F 63% 29.83 in 10.0 mi Calm Calm - N/A   Overcast
4:15 PM 80.1 °F 82.1 °F 65.8 °F 62% 29.83 in 10.0 mi Calm Calm - N/A   Overcast
4:35 PM 79.5 °F - 66.9 °F 65% 29.83 in 10.0 mi Calm Calm - N/A   Overcast
4:50 PM 78.8 °F - 67.8 °F 69% 29.83 in 10.0 mi Calm Calm - N/A   Overcast
5:15 PM 78.1 °F - 67.8 °F 71% 29.84 in 10.0 mi NW 9.2 mph - N/A   Overcast
5:35 PM 75.7 °F - 68.9 °F 79% 29.84 in 10.0 mi NW 5.8 mph - N/A   Overcast
5:55 PM 74.7 °F - 69.1 °F 83% 29.84 in 10.0 mi WNW 3.5 mph - N/A   Overcast
6:15 PM 73.9 °F - 68.9 °F 84% 29.84 in 10.0 mi NW 5.8 mph - N/A   Overcast
6:35 PM 74.1 °F - 69.1 °F 84% 29.83 in 10.0 mi Calm Calm - N/A   Overcast
6:55 PM 73.9 °F - 69.1 °F 85% 29.83 in 10.0 mi Calm Calm - N/A   Mostly Cloudy
7:15 PM 73.4 °F - 69.3 °F 87% 29.83 in 10.0 mi Calm Calm - N/A   Scattered Clouds
7:35 PM 72.5 °F - 69.8 °F 91% 29.83 in 10.0 mi Calm Calm - N/A   Scattered Clouds
7:55 PM 72.3 °F - 69.3 °F 90% 29.84 in 10.0 mi WNW 3.5 mph - N/A   Scattered Clouds
8:15 PM 72.3 °F - 69.4 °F 91% 29.85 in 10.0 mi WNW 3.5 mph - N/A   Mostly Cloudy
8:35 PM 72.1 °F - 69.6 °F 92% 29.84 in 10.0 mi Calm Calm - N/A   Overcast
8:55 PM 71.1 °F - 70.0 °F 96% 29.83 in 10.0 mi Calm Calm - N/A   Overcast
9:15 PM 70.9 °F - 69.8 °F 96% 29.84 in 10.0 mi NW 3.5 mph - N/A   Overcast
9:35 PM 71.4 °F - 69.4 °F 93% 29.84 in 10.0 mi WNW 4.6 mph - N/A   Mostly Cloudy
9:55 PM 71.4 °F - 68.9 °F 92% 29.84 in 10.0 mi WNW 4.6 mph - N/A   Scattered Clouds
10:15 PM 70.3 °F - 67.5 °F 91% 29.85 in 10.0 mi WNW 4.6 mph - N/A   Scattered Clouds
10:35 PM 69.4 °F - 65.8 °F 88% 29.85 in 10.0 mi WNW 3.5 mph - N/A   Scattered Clouds
10:55 PM 68.7 °F - 65.1 °F 88% 29.86 in 10.0 mi WNW 4.6 mph - N/A   Scattered Clouds
11:15 PM 68.2 °F - 64.4 °F 88% 29.86 in 10.0 mi West 3.5 mph - N/A   Overcast
11:35 PM 67.8 °F - 63.9 °F 87% 29.86 in 10.0 mi Calm Calm - N/A   Overcast
11:55 PM 66.2 °F - 63.7 °F 92% 29.86 in 10.0 mi Calm Calm - N/A   Scattered Clouds